Regional Weather Roundup
Issued by NWS

Home | Current Version | Previous Version | Graphics & Text | Print | Product List | Glossary On
Versions: 1 2 3 4 5 6 7 8 9 10 11 12 13 14 15 16 17 18 19 20 21 22 23 24 25 26 27 28 29 30 31 32 33 34 35 36 37 38 39 40 41 42 43 44 45 46 47 48 49 50
000
ASUS43 KBIS 010210
RWRND

NORTH DAKOTA REGIONAL WEATHER ROUNDUP
NATIONAL WEATHER SERVICE BISMARCK ND
900 PM CDT FRI JUL 31 2015

NOTE: "FAIR" INDICATES FEW OR NO CLOUDS BELOW 12,000 FEET WITH NO
SIGNIFICANT WEATHER AND/OR OBSTRUCTIONS TO VISIBILITY.


NDZ001>003-009>011-017-010300-
NORTHWEST NORTH DAKOTA

CITY           SKY/WX    TMP DP  RH WIND       PRES   REMARKS
WILLISTON      CLEAR     82  51  34 NE12      30.00F
MINOT          CLEAR     72  53  51 N3        30.01F
MINOT AFB      CLEAR     78  56  46 CALM      30.00F
$$

NDZ018>021-031>035-040>046-010300-
SOUTHWEST NORTH DAKOTA

CITY           SKY/WX    TMP DP  RH WIND       PRES   REMARKS
BISMARCK       CLEAR     76  56  49 E7        30.03R
DICKINSON      CLEAR     75  53  46 E7        30.02F
GARRISON         N/A     74  57  55 E3        30.02F
HETTINGER ARPT CLEAR     79  48  33 SE5       30.06F
$$

NDZ004>008-012>016-024-026-027-054-010300-
NORTHEAST NORTH DAKOTA

CITY           SKY/WX    TMP DP  RH WIND       PRES   REMARKS
GRAND FORKS    CLEAR     68  57  68 NW5       29.96S
GRND FRKS AFB  CLEAR     68  55  61 NW5       29.97S
DEVILS LAKE    CLEAR     72  52  49 W7        30.00S
$$

NDZ022-023-025-028>030-036>039-047>053-010300-
SOUTHEAST NORTH DAKOTA

CITY           SKY/WX    TMP DP  RH WIND       PRES   REMARKS
FARGO          CLEAR     73  59  61 N5        29.97S
JAMESTOWN      CLEAR     70  62  76 N6        30.01R
$$



USA.gov is the U.S. government's official web portal to all federal, state and local government web resources and services.